Weather in Shatrovo

Russia / Kurgan Oblast     56°31′10″N   64°37′59″E
temp.,
°C
wind,
m/s
gust,
m/s
humid.,
%
clouds,
%
prec.,
mm/h
press.,
hPa
HPBL,
m
4 march, thu
thu423:00−8ssw4895100 0.0 1000149
02:00−9ssw479597 0.0 999119
05:00−10ssw349679 0.0 99862
08:00−10ssw359787 0.0 99788
11:00−6sw479481 0.0 997301
14:00−3sw5891100 0.0 996557
17:00−4sw5892100 0.1 997707
20:00−6wsw51188100 0.2 998373
5 march, fri
fri523:00−11wsw4109067 0.2 1000166
02:00−14ssw47922 0.0 99991
05:00−10ssw5139351 0.0 998386
08:00−6ssw81593100 0.6 996718
11:00−3wsw8138098 0.6 9961051
14:00−2wsw8128399 0.1 9971207
17:00−2wsw6138197 0.1 999836
20:00−5wsw5148488 0.0 1000374
6 march, sat
sat623:00−7w4118689 0.0 1002272
02:00−11wsw499013 0.0 1003158
05:00−13wsw49927 0.0 1005156
08:00−15w511920 0.0 1006254
11:00−11w611810 0.0 1008544
14:00−8w69840 0.0 1008748
17:00−8wsw6108748 0.0 1009836
20:00−12sw5109063 0.0 1009178
7 march, sun
sun723:00−14wsw349157 0.0 101061
02:00−15wsw2392100 0.0 100920
05:00−16wnw1193100 0.0 100920
08:00−16nnw2291100 0.0 100820
11:00−12nw238483 0.0 1008227
14:00−9wnw24760 0.0 1008544
17:00−10w22879 0.0 100833
20:00−13wsw238894 0.0 100922
8 march, mon
mon823:00−13sw339695 0.1 101153
02:00−16sw349780 0.0 101166
05:00−19wsw349653 0.1 101327
08:00−20wsw239918 0.0 101322
11:00−16ssw359445 0.0 1013232
14:00−11s4889100 0.0 1011436
17:00−8s61291100 0.1 1009779
20:00−11s51389100 0.4 1008566